Find SAT-45415

NORAD ID: 45415 Owner: SpaceX Operational

实时位置

正在加载3D地球...

关于 SAT-45415

正在加载描述...

即将过境

Passes for default location (London). Set your location on the main map for personalized predictions.

高度历史

Loading altitude history...

两行轨道根数

1 25544U 98067A 24001.50000000 .00002182 00000-0 42575-4 0 9990
2 25544 51.6461 339.7939 0001397 83.2776 276.8615 15.48919103123456
Epoch: Jan 1, 2024 • Age: N/A

当前状态

Position data unavailable

Most Searched